timestamp,wind_dir_avg,wind_spd_avg,wind_spd_max_dir,wind_spd_gust,battery_voltage,lat,long
2022-02-15 00:04:00+00:00,20.0,13.19,26.0,15.58,12.17,47.59359,-54.27349
2022-02-15 00:14:00+00:00,17.0,13.97,25.0,17.07,12.17,47.59359,-54.27349
2022-02-15 00:24:00+00:00,14.0,13.7,23.0,16.15,12.17,47.59359,-54.27349
2022-02-15 00:34:00+00:00,26.0,14.05,31.0,16.01,12.17,47.59359,-54.27349
2022-02-15 00:44:00+00:00,24.0,13.77,26.0,15.94,12.17,47.59359,-54.27349
2022-02-15 00:54:00+00:00,26.0,16.06,29.0,18.49,12.17,47.59359,-54.27349
2022-02-15 01:04:00+00:00,37.0,15.04,31.0,17.97,12.17,47.59359,-54.27349
2022-02-15 01:14:00+00:00,41.0,15.66,43.0,18.5,12.17,47.59359,-54.27349
2022-02-15 01:24:00+00:00,37.0,16.63,36.0,19.67,12.17,47.59359,-54.27349
2022-02-15 01:34:00+00:00,44.0,16.24,43.0,18.3,12.17,47.59359,-54.27349
2022-02-15 01:44:00+00:00,44.0,16.69,39.0,18.66,12.17,47.59359,-54.27349
2022-02-15 01:54:00+00:00,50.0,16.1,45.0,18.07,12.17,47.59359,-54.27349
2022-02-15 02:04:00+00:00,44.0,15.09,44.0,17.32,12.17,47.59359,-54.27349
2022-02-15 02:14:01+00:00,52.0,15.5,55.0,17.53,12.09,47.59359,-54.27349
2022-02-15 02:24:01+00:00,46.0,16.64,43.0,18.12,12.09,47.59359,-54.27349
2022-02-15 02:34:01+00:00,53.0,15.56,55.0,17.1,12.09,47.59359,-54.27349
2022-02-15 02:44:01+00:00,51.0,15.3,52.0,17.15,12.09,47.59359,-54.27349
2022-02-15 02:54:01+00:00,48.0,13.51,52.0,16.47,12.09,47.59359,-54.27349
2022-02-15 03:04:01+00:00,43.0,11.87,56.0,15.24,12.09,47.59359,-54.27349
2022-02-15 03:14:00+00:00,13.0,10.64,12.0,12.18,12.17,47.59359,-54.27349
2022-02-15 03:24:00+00:00,23.0,9.29,32.0,13.38,12.17,47.59359,-54.27349
2022-02-15 03:34:00+00:00,25.0,10.22,51.0,15.79,12.17,47.59359,-54.27349
2022-02-15 03:44:00+00:00,49.0,12.19,55.0,15.74,12.17,47.59359,-54.27349
2022-02-15 03:54:00+00:00,44.0,14.01,52.0,16.98,12.17,47.59359,-54.27349
2022-02-15 04:04:00+00:00,50.0,11.65,53.0,15.55,12.17,47.59359,-54.27349
2022-02-15 04:14:01+00:00,47.0,13.26,53.0,16.23,12.09,47.59359,-54.27349
2022-02-15 04:24:01+00:00,39.0,12.77,47.0,16.51,12.09,47.59359,-54.27349
2022-02-15 04:34:01+00:00,33.0,10.76,48.0,14.64,12.09,47.59359,-54.27349
2022-02-15 04:44:01+00:00,37.0,11.53,54.0,15.13,12.09,47.59359,-54.27349
2022-02-15 04:54:01+00:00,17.0,10.47,9.0,12.85,12.09,47.59359,-54.27349
2022-02-15 05:04:01+00:00,15.0,12.23,16.0,13.85,12.09,47.59359,-54.27349
2022-02-15 05:14:00+00:00,17.0,11.82,14.0,13.28,12.09,47.59359,-54.27349
2022-02-15 05:24:00+00:00,18.0,11.08,34.0,13.19,12.09,47.59359,-54.27349
2022-02-15 05:34:00+00:00,16.0,11.88,22.0,14.07,12.09,47.59359,-54.27349
2022-02-15 05:44:00+00:00,0.0,10.44,359.0,11.92,12.09,47.59359,-54.27349
2022-02-15 05:54:00+00:00,2.0,10.76,2.0,12.39,12.09,47.59359,-54.27349
2022-02-15 06:04:00+00:00,1.0,9.57,1.0,11.61,12.09,47.59359,-54.27349
2022-02-15 06:14:01+00:00,359.0,10.8,359.0,12.1,12.09,47.59359,-54.27349
2022-02-15 06:24:01+00:00,356.0,10.8,355.0,12.95,12.09,47.59359,-54.27349
2022-02-15 06:34:01+00:00,357.0,10.49,356.0,12.69,12.09,47.59359,-54.27349
2022-02-15 06:44:01+00:00,4.0,10.06,4.0,12.39,12.09,47.59359,-54.27349
2022-02-15 06:54:01+00:00,5.0,10.58,6.0,12.49,12.09,47.59359,-54.27349
2022-02-15 07:04:01+00:00,5.0,11.45,0.0,13.54,12.09,47.59359,-54.27349
2022-02-15 07:14:01+00:00,0.0,11.04,2.0,12.53,12.09,47.59359,-54.27349
2022-02-15 07:24:01+00:00,0.0,11.47,357.0,14.59,12.09,47.59359,-54.27349
2022-02-15 07:34:01+00:00,1.0,12.27,358.0,13.95,12.09,47.59359,-54.27349
2022-02-15 07:44:01+00:00,2.0,11.26,1.0,13.14,12.09,47.59359,-54.27349
2022-02-15 07:54:01+00:00,357.0,12.25,2.0,13.87,12.09,47.59359,-54.27349
2022-02-15 08:04:01+00:00,356.0,13.47,351.0,15.27,12.09,47.59359,-54.27349
2022-02-15 08:14:01+00:00,1.0,11.07,359.0,13.87,12.09,47.59359,-54.27349
2022-02-15 08:24:01+00:00,356.0,12.37,349.0,14.0,12.09,47.59359,-54.27349
2022-02-15 08:34:01+00:00,2.0,11.7,12.0,13.61,12.09,47.59359,-54.27349
2022-02-15 08:44:01+00:00,356.0,12.37,354.0,15.17,12.09,47.59359,-54.27349
2022-02-15 08:54:01+00:00,358.0,12.28,353.0,14.52,12.09,47.59359,-54.27349
2022-02-15 09:04:01+00:00,353.0,12.17,354.0,14.03,12.09,47.59359,-54.27349
2022-02-15 09:14:00+00:00,357.0,12.22,350.0,14.1,12.09,47.59359,-54.27349
2022-02-15 09:24:00+00:00,358.0,12.03,1.0,13.58,12.09,47.59359,-54.27349
2022-02-15 09:34:00+00:00,352.0,12.9,351.0,14.51,12.09,47.59359,-54.27349
2022-02-15 09:44:00+00:00,359.0,10.58,1.0,11.91,12.09,47.59359,-54.27349
2022-02-15 09:54:00+00:00,357.0,12.24,21.0,15.03,12.09,47.59359,-54.27349
2022-02-15 10:04:00+00:00,354.0,11.97,350.0,13.63,12.09,47.59359,-54.27349
2022-02-15 10:14:00+00:00,356.0,10.82,8.0,12.49,12.09,47.59359,-54.27349
2022-02-15 10:24:00+00:00,1.0,10.86,2.0,12.88,12.09,47.59359,-54.27349
2022-02-15 10:34:00+00:00,358.0,11.68,344.0,13.5,12.09,47.59359,-54.27349
2022-02-15 10:44:00+00:00,1.0,11.18,11.0,12.8,12.09,47.59359,-54.27349
2022-02-15 10:54:00+00:00,5.0,11.18,8.0,13.57,12.09,47.59359,-54.27349
2022-02-15 11:04:00+00:00,359.0,11.08,342.0,13.48,12.09,47.59359,-54.27349
2022-02-15 11:14:01+00:00,358.0,13.37,4.0,16.07,12.09,47.59359,-54.27349
2022-02-15 11:24:01+00:00,357.0,12.95,3.0,16.39,12.09,47.59359,-54.27349
2022-02-15 11:34:01+00:00,3.0,9.49,10.0,10.6,12.09,47.59359,-54.27349
2022-02-15 11:44:01+00:00,359.0,11.04,3.0,13.03,12.09,47.59359,-54.27349
2022-02-15 11:54:01+00:00,1.0,11.54,4.0,13.37,12.09,47.59359,-54.27349
2022-02-15 12:04:01+00:00,357.0,9.19,9.0,11.39,12.09,47.59359,-54.27349
2022-02-15 12:14:00+00:00,4.0,10.17,0.0,12.4,12.41,47.59359,-54.27349
2022-02-15 12:24:00+00:00,350.0,11.53,350.0,13.64,12.41,47.59359,-54.27349
2022-02-15 12:34:00+00:00,344.0,12.03,347.0,13.74,12.41,47.59359,-54.27349
2022-02-15 12:44:00+00:00,340.0,12.02,322.0,13.87,12.41,47.59359,-54.27349
2022-02-15 12:54:00+00:00,338.0,12.47,325.0,15.69,12.41,47.59359,-54.27349
2022-02-15 13:04:00+00:00,347.0,10.37,327.0,12.84,12.41,47.59359,-54.27349
2022-02-15 13:14:01+00:00,346.0,8.22,321.0,12.21,13.6,47.59359,-54.27349
2022-02-15 13:24:01+00:00,353.0,9.68,359.0,13.36,13.6,47.59359,-54.27349
2022-02-15 13:34:01+00:00,359.0,8.83,356.0,10.65,13.6,47.59359,-54.27349
2022-02-15 13:44:01+00:00,345.0,8.35,337.0,10.91,13.6,47.59359,-54.27349
2022-02-15 13:54:01+00:00,334.0,9.6,320.0,12.18,13.6,47.59359,-54.27349
2022-02-15 14:04:01+00:00,321.0,12.21,317.0,14.34,13.6,47.59359,-54.27349
2022-02-15 14:14:01+00:00,319.0,13.75,316.0,15.16,14.4,47.59359,-54.27349
2022-02-15 14:24:01+00:00,331.0,11.85,331.0,14.78,14.4,47.59359,-54.27349
2022-02-15 14:34:01+00:00,333.0,11.91,325.0,14.11,14.4,47.59359,-54.27349
2022-02-15 14:44:01+00:00,319.0,12.26,318.0,14.15,14.4,47.59359,-54.27349
2022-02-15 14:54:01+00:00,328.0,9.15,313.0,11.86,14.4,47.59359,-54.27349
2022-02-15 15:04:01+00:00,320.0,10.04,317.0,12.25,14.4,47.59359,-54.27349
2022-02-15 15:14:00+00:00,316.0,10.58,314.0,12.74,13.68,47.59359,-54.27349
2022-02-15 15:24:00+00:00,320.0,10.77,322.0,12.48,13.68,47.59359,-54.27349
2022-02-15 15:34:00+00:00,307.0,9.96,305.0,11.82,13.68,47.59359,-54.27349
2022-02-15 15:44:00+00:00,319.0,8.5,312.0,11.2,13.68,47.59359,-54.27349
2022-02-15 15:54:00+00:00,328.0,6.79,335.0,8.71,13.68,47.59359,-54.27349
2022-02-15 16:04:00+00:00,323.0,7.98,303.0,11.99,13.68,47.59359,-54.27349
2022-02-15 16:14:01+00:00,324.0,8.55,318.0,11.01,14.0,47.59359,-54.27349
2022-02-15 16:24:01+00:00,307.0,9.1,298.0,11.15,14.0,47.59359,-54.27349
2022-02-15 16:34:01+00:00,316.0,10.89,311.0,12.6,14.0,47.59359,-54.27349
2022-02-15 16:44:01+00:00,323.0,6.99,312.0,10.63,14.0,47.59359,-54.27349
2022-02-15 16:54:01+00:00,310.0,10.55,311.0,12.69,14.0,47.59359,-54.27349
2022-02-15 17:04:01+00:00,300.0,9.8,297.0,11.16,14.0,47.59359,-54.27349
2022-02-15 17:14:01+00:00,308.0,9.99,300.0,12.07,13.92,47.59359,-54.27349
2022-02-15 17:24:01+00:00,298.0,9.85,302.0,11.65,13.92,47.59359,-54.27349
2022-02-15 17:34:01+00:00,299.0,9.41,298.0,11.95,13.92,47.59359,-54.27349
2022-02-15 17:44:01+00:00,301.0,10.02,298.0,11.41,13.92,47.59359,-54.27349
2022-02-15 17:54:01+00:00,295.0,9.54,295.0,11.1,13.92,47.59359,-54.27349
2022-02-15 18:04:01+00:00,289.0,9.25,288.0,10.56,13.92,47.59359,-54.27349
2022-02-15 18:14:00+00:00,297.0,9.68,296.0,11.34,14.4,47.59359,-54.27349
2022-02-15 18:24:00+00:00,295.0,9.83,293.0,11.97,14.4,47.59359,-54.27349
2022-02-15 18:34:00+00:00,296.0,10.33,295.0,11.38,14.4,47.59359,-54.27349
2022-02-15 18:44:00+00:00,301.0,9.33,298.0,11.56,14.4,47.59359,-54.27349
2022-02-15 18:54:00+00:00,296.0,10.64,295.0,11.74,14.4,47.59359,-54.27349
2022-02-15 19:04:00+00:00,301.0,10.47,299.0,12.11,14.4,47.59359,-54.27349
2022-02-15 19:14:01+00:00,303.0,10.96,304.0,12.7,13.6,47.59359,-54.27349
2022-02-15 19:24:01+00:00,300.0,8.19,295.0,10.87,13.6,47.59359,-54.27349
2022-02-15 19:34:01+00:00,291.0,10.07,295.0,11.48,13.6,47.59359,-54.27349
2022-02-15 19:44:01+00:00,302.0,8.12,296.0,10.89,13.6,47.59359,-54.27349
2022-02-15 19:54:01+00:00,301.0,9.07,297.0,11.07,13.6,47.59359,-54.27349
2022-02-15 20:04:01+00:00,290.0,8.0,286.0,11.57,13.6,47.59359,-54.27349
2022-02-15 20:14:00+00:00,302.0,5.58,294.0,9.12,13.6,47.59359,-54.27349
2022-02-15 20:24:00+00:00,275.0,9.74,277.0,10.58,13.6,47.59359,-54.27349
2022-02-15 20:34:00+00:00,291.0,7.97,293.0,10.48,13.6,47.59359,-54.27349
2022-02-15 20:44:00+00:00,287.0,8.19,285.0,10.59,13.6,47.59359,-54.27349
2022-02-15 20:54:00+00:00,285.0,7.24,282.0,9.76,13.6,47.59359,-54.27349
2022-02-15 21:04:00+00:00,279.0,4.56,277.0,8.79,13.6,47.59359,-54.27349
2022-02-15 21:14:01+00:00,279.0,9.4,282.0,10.71,13.21,47.59359,-54.27349
2022-02-15 21:24:01+00:00,285.0,7.84,281.0,9.89,13.21,47.59359,-54.27349
2022-02-15 21:34:01+00:00,289.0,7.02,283.0,10.17,13.21,47.59359,-54.27349
2022-02-15 21:44:01+00:00,268.0,8.36,265.0,10.49,13.21,47.59359,-54.27349
2022-02-15 21:54:01+00:00,272.0,8.98,275.0,10.4,13.21,47.59359,-54.27349
2022-02-15 22:04:01+00:00,285.0,7.86,291.0,10.47,13.21,47.59359,-54.27349
2022-02-15 22:14:00+00:00,288.0,9.4,291.0,11.0,12.57,47.59359,-54.27349
2022-02-15 22:24:00+00:00,297.0,7.8,293.0,10.98,12.57,47.59359,-54.27349
2022-02-15 22:34:00+00:00,289.0,9.89,298.0,11.64,12.57,47.59359,-54.27349
2022-02-15 22:44:00+00:00,290.0,9.32,290.0,11.27,12.57,47.59359,-54.27349
2022-02-15 22:54:00+00:00,292.0,10.22,291.0,11.2,12.57,47.59359,-54.27349
2022-02-15 23:04:00+00:00,299.0,10.08,304.0,12.1,12.57,47.59359,-54.27349
2022-02-15 23:14:01+00:00,295.0,9.81,294.0,11.49,12.41,47.59359,-54.27349
2022-02-15 23:24:01+00:00,297.0,9.66,298.0,11.26,12.41,47.59359,-54.27349
2022-02-15 23:34:01+00:00,293.0,8.19,292.0,11.35,12.41,47.59359,-54.27349
2022-02-15 23:44:01+00:00,291.0,8.98,291.0,11.4,12.41,47.59359,-54.27349
2022-02-15 23:54:01+00:00,296.0,9.98,297.0,11.87,12.41,47.59359,-54.27349
